Showing default

COSMOS 1953, 19210

Orbit data source: Space-Track

COSMOS 1953, 19210 is a payload satellite owned by GRU (CIS) in LEO that was launched on Tue, 14 Jun 1988 UTC via a TSIKLON-3 launch vehicle from the Plesetsk Missile And Space Complex (PKMTR). Payload-class satellites include a variety of spacecraft equipped with specific instruments for various scientific and technological missions. These include communications satellites like Starlink; space stations such as the ISS; scientific satellites like the Hubble; Earth observation satellites from companies like Planet Labs, Umbra, and HawkEye 360; GPS; miniature CubeSats for education and research; and military/defense satellites.

Loading next visibility...
Identifier
19210, 1988-050A
Orbit
LEO
Country
Flag of CISCIS
Related business
Manufacturer
Yuzhnoe
Mission
Defense Sigint
Bus & Motor
TSELINA-D, Unknown motor
Mass
1,750 kg wet, 1,750 kg dry
Launch date (UTC)
1988-06-14 (38 years ago)
Launch vehicle
TSIKLON-3
Launch site
Plesetsk Missile And Space Complex (PKMTR)
Object type
Payload
Rocket body
Debris
Shape & HBR
Cyl + 2 Pan, 6.6 m
Radar Cross Section
8.068 m², Large (>1 m²)

Expand to show TLE details & history
Last TLE update: 9 hours ago

TLE from 9 hours ago
0 COSMOS 1953
1 19210U 88050A   26264.12334168  .00004569  00000-0  15055-3 0  9995
2 19210  82.5083 321.2099 0011524 146.3325 213.8651 15.31131918 67668
Epoch: 2026-09-21T02:57Z
TLE epoch observation values (Epoch: 2026-09-21T02:57:36.721Z)
Latitude
0.00006°
Longitude
-83.20079°
Altitude
482.096 km
Speed
7.621 km/s
True Right ascension
21h 24m 50s
True Declination
0° 00' 00"
Sunlit
Object was in full shadow at epoch
Visualization orbit readout
Latitude
Unknown
Longitude
Unknown
Altitude
Unknown
Speed
Unknown
Apparent Right ascension
Unknown
Apparent Declination
Unknown
Sunlit
N/A
Visualization observer readout
Local Sidereal Time
04:56:41
Azimuth
Unknown
Elevation
Unknown
Doppler factor
Unknown
Orbital elements
Apogee altitude
477.28 km
Perigee altitude
461.498 km
Semi-major axis
6,847.526 km
Eccentricity
0.00115
Inclination
82.5083°
RAAN
321.2099°
Arg. of periapsis
146.3325°
True anomaly
213.7916°
Mean anomaly
213.8651°
Eccentric anomaly
213.82834°
Mean motion
3.83039 °/min
Orbital period
93.99 mins
BSTAR
0.00015055
Loading maneuver chart data...
Computing Atmospheric mass density...
Loading historical data...
Loading historical data...
Loading historical data...
Loading historical data...
Loading historical data...
Loading historical data...
Loading historical data...
Other satellites on launch #50 in the year 1988 (1988-06-14 UTC)

Documentation

Showing up to 5 results
|